User: anonymous   Login
Location: Unspecified
(0.0000°N, 0.0000°E)
Time: 14:45:11
(UTC+00:00)
Language:

Courier 1B - Orbit

View from above orbital plane
View from above orbital plane
View from above satellite
View from above satellite

Ground track
Ground track

The orbit data is extracted from the following two-line orbital elements,

1    58U 60013A   21213.17576817  .00000093  00000-0  64442-5 0  9991
2    58  28.3265 175.9946 0165035 221.3754 137.4185 13.46327835994403
Epoch (UTC): 01 August 2021 04:13:06
Eccentricity: 0.0165035
inclination: 28.3265°
perigee height: 962 km
apogee height: 1209 km
right ascension of ascending node: 175.9946°
argument of perigee: 221.3754°
revolutions per day: 13.46327835
mean anomaly at epoch: 137.4185°
orbit number at epoch: 99440

The dashed part of the orbit path shows where the satellite is in the earth's shadow,  

DLR